Tracking 25953 objects as of 16-Aug-2022
HD Live streaming from Space Station
objects crossing your sky now

ARIANE 3 DEB

Track ARIANE 3 DEB now!


NORAD ID: 26807
Int'l Code: 1988-081H
Perigee: 1,043.8 km
Apogee: 36,562.2 km
Inclination: 6.4 °
Period: 662.5 minutes
Semi major axis: 25174 km
RCS: 0.4361 m2 (medium)
Launch date: September 8, 1988
Source: France (FR)
Launch site: FRENCH GUIANA (FRGUI)

Note: This is SATELLITE DEBRIS
aabbcc
Your satellite tracking list
Your tracking list is empty




NASA's NSSDC Master Catalog

Two Line Element Set (TLE):
1 26807U 88081H   22224.45602941 -.00000110  00000-0  00000-0 0  9994
2 26807   6.4333  57.7590 7054563 235.0189  21.4716  2.17357335182047
Source of the keplerian elements: AFSPC